Location: Lane
(33.5226°N, 79.8788°W)
Time: 02:05:02
(UTC+00:00)

Vanguard 1 Rocket - Pass Details

Date: 03 October 2022
Orbit: 650 x 4225 km, 34.3° (Epoch: 06 December)

Event Time Altitude Azimuth Distance (km) Brightness Sun altitude
Rises 02:46:26 0° 263° (W) 7,727 12.6 -45.6°
Reaches altitude 10° 02:52:23 10° 264° (W) 6,233 12.0 -46.6°
Enters shadow 03:06:28 58° 270° (W) 2,481 9.4 -48.9°
